Regional Weather Roundup
Issued by NWS

Home | Current Version | Previous Version | Graphics & Text | Print | Product List | Glossary Off
Versions: 1 2 3 4 5 6 7 8 9 10 11 12 13 14 15 16 17 18 19 20 21 22 23 24 25 26 27 28 29 30 31 32 33 34 35 36 37 38 39 40 41 42 43 44 45 46 47 48 49 50

000
ASUS43 KIND 250609
RWRIN

WEATHER ROUNDUP FOR INDIANA
NATIONAL WEATHER SERVICE INDIANAPOLIS IN
200 AM EDT TUE APR 25 2017

NOTE: "FAIR" INDICATES FEW OR NO CLOUDS BELOW 12,000 FEET WITH NO
SIGNIFICANT WEATHER AND/OR OBSTRUCTIONS TO VISIBILITY.

* - STATION DOES NOT REPORT WEATHER SUCH AS PRECIPITATION OR FOG.

+ - STATION NOT QUALITY CONTROLLED BY THE NATIONAL WEATHER SERVICE.
    USE DATA WITH CAUTION...ESPECIALLY DEWPOINT AND RELATIVE
    HUMIDITY OBSERVATIONS.

INZ001>003-010>013-019-020-250700-
NORTHWEST INDIANA

CITY           SKY/WX    TMP DP  RH WIND       PRES   REMARKS
GARY /AIRPORT/ CLEAR     61  35  37 E10       29.77S
KNOX *+        CLEAR     54  18  24 SE9       29.79S
LA PORTE +     CLEAR     53  39  60 E8        29.79F
6HR MIN TEMP:  53; 6HR MAX TEMP:  68;

MICHIGAN CITY+ CLEAR     55  37  50 SE8       29.78F
MONTICELLO +   CLEAR     57  43  59 E6        29.77S
6HR MIN TEMP:  57; 6HR MAX TEMP:  70;

RENSSELAER +   CLEAR     55  41  58 E8        29.77S
VALPARAISO     CLEAR     54  40  59 E7        29.78F
6HR MIN TEMP:  54; 6HR MAX TEMP:  70;


$$

LMZ046-743>745-250700-
SOUTHERN LAKE MICHIGAN

STATION/POSITION TIME  TEMP    WIND        PRES    WAVE
                       AIR SEA DIR/SP/G            HT
                 (UTC) (F)     (DEG/KT/KT) (MB)    (FT)
BURNS HARBOR     0540   60     120/ 13/ 23 1008.1F
MICHIGAN CITY    0540   59     120/  9/ 11   N/A

$$

INZ004-005-014>016-021>024-250700-
NORTH CENTRAL INDIANA

CITY           SKY/WX    TMP DP  RH WIND       PRES   REMARKS
GOSHEN         CLEAR     52  39  61 E7        29.81S
6HR MIN TEMP:  52; 6HR MAX TEMP:  64;

LOGANSPORT +   CLEAR     50  43  76 E6        29.81R
PERU/GRISSOM   PTCLDY    56  48  75 E5        29.78S
6HR MIN TEMP:  56; 6HR MAX TEMP:  68;

ROCHESTER +    CLEAR     55  43  62 E5        29.81S
SOUTH BEND     CLEAR     54  39  57 SE9       29.82S
6HR MIN TEMP:  54; 6HR MAX TEMP:  67;

WARSAW +       CLEAR     52  41  66 E9        29.81S

$$

INZ006>009-017-018-025>027-250700-
NORTHEAST INDIANA

CITY           SKY/WX    TMP DP  RH WIND       PRES   REMARKS
ANGOLA *+      CLEAR     50  45  81 E7        29.83S
AUBURN +       CLEAR     54  45  71 E3        29.84R
FORT WAYNE     PTCLDY    54  46  74 E9        29.82S
6HR MIN TEMP:  51; 6HR MAX TEMP:  65;

HUNTINGTON +   PTCLDY    52  42  69 E3        29.81R
6HR MIN TEMP:  52; 6HR MAX TEMP:  66;

KENDALLVILLE + CLEAR     52  44  74 E6        29.82F

$$

INZ028-029-035-036-043>045-051>053-250700-
WEST CENTRAL INDIANA

CITY           SKY/WX    TMP DP  RH WIND       PRES   REMARKS
CRAWFORDSVL +  CLEAR     57  52  82 SE9       29.76S
6HR MIN TEMP:  54; 6HR MAX TEMP:  69;

GREENCASTLE +  CLEAR     55  50  82 SE7       29.78R
LAFAYETTE      CLEAR     53  47  79 E8        29.76S
6HR MIN TEMP:  53; 6HR MAX TEMP:  66;

TERRE HAUTE    CLEAR     59  49  69 SE7       29.75S
6HR MIN TEMP:  53; 6HR MAX TEMP:  71;


$$

INZ030>032-037>040-046>048-054>057-064-065-250700-
CENTRAL INDIANA

CITY           SKY/WX    TMP DP  RH WIND       PRES   REMARKS
CP ATTERBURY + CLEAR     54  50  87 CALM      29.79R
FISHERS *+     CLEAR     55  52  88 E3        29.79R
FRANKFORT +    CLEAR     58  50  76 SE8       29.80S
6HR MIN TEMP:  58; 6HR MAX TEMP:  74;

GREENWOOD *+   CLEAR     58  50  74 CALM      29.79S
INDIANAPOLIS   PTCLDY    57  51  80 SE6       29.77S
6HR MIN TEMP:  57; 6HR MAX TEMP:  73;

-EAGLE CREEK   PTCLDY    60  50  69 SE5       29.77S
6HR MIN TEMP:  60; 6HR MAX TEMP:  73;

KOKOMO +       CLEAR     55  49  80 SE6       29.80S
6HR MIN TEMP:  53; 6HR MAX TEMP:  68;

MARION +       CLEAR     55  50  82 SE7       29.81R
MT COMFORT *+  CLEAR     54  50  87 E3        29.79S
SHELBYVILLE    CLOUDY    62  50  64 SE7       29.78S
6HR MIN TEMP:  60; 6HR MAX TEMP:  74;

ZIONSVILLE +   CLEAR     58  50  75 SE7       29.79S
6HR MIN TEMP:  58; 6HR MAX TEMP:  70;


$$

INZ033-034-041-042-049-050-058-059-250700-
EAST CENTRAL INDIANA

CITY           SKY/WX    TMP DP  RH WIND       PRES   REMARKS
MUNCIE         CLEAR     59  51  75 SE8       29.80S
6HR MIN TEMP:  58; 6HR MAX TEMP:  73;

RICHMOND +     CLOUDY    54  50  87 SE10      29.82S

$$

INZ060-061-067>069-081>083-085>088-250700-
SOUTHWEST INDIANA

CITY           SKY/WX    TMP DP  RH WIND       PRES   REMARKS
EVANSVILLE     CLEAR     58  50  75 CALM      29.75S
6HR MIN TEMP:  57; 6HR MAX TEMP:  76;

HUNTINGBURG *+ CLEAR     57  52  83 SE7       29.76F
6HR MIN TEMP:  57; 6HR MAX TEMP:  71;

WASHINGTON +   CLEAR     57  49  72 MISG      29.76S
6HR MIN TEMP:  57; 6HR MAX TEMP:  73;


$$

INZ062-063-066-070>080-084-089>092-250700-
SOUTH CENTRAL AND SOUTHEAST INDIANA

CITY           SKY/WX    TMP DP  RH WIND       PRES   REMARKS
BEDFORD +      CLEAR    N/A N/A N/A CALM      29.77R
BLOOMINGTON    CLEAR     60  50  69 SE7       29.77S
6HR MIN TEMP:  60; 6HR MAX TEMP:  73;

MADISON *+     MOCLDY    61  52  72 E7        29.80S
NORTH VERNON + CLOUDY    61  52  72 CALM      29.79R
SEYMOUR +      CLEAR     57  50  77 CALM      29.78R

$$





USA.gov is the U.S. government's official web portal to all federal, state and local government web resources and services.